Torna al catalogo

FENGYUN 1C DEB

AttivoPO
NORAD 32129·DEBRIS·🇨🇳 China

Lanciato May 10, 1999 da Taiyuan Satellite Launch Center

Loading…

Prossimi Passaggi (prossime 24 ore)

TLE

AggiornatoSource: Space-Track

Epoca: Sep 13, 2026, 07:39 UTC

1 32129U 99025CRX 26256.31879208  .00003243  00000-0  12062-2 0  9996
2 32129  99.0733  31.1616 0064296 317.5247  72.2397 14.31683649981524

Traccia FENGYUN 1C DEB in tempo reale con AllMySat

Download on the App Store